カタログに戻る

STARLINK-11549

運用中通信VLEO
NORAD 62832·PAYLOAD·🇺🇸 United States

打ち上げ Jan 27, 2025 から Cape Canaveral Space Force Station

Loading…

次のパス (今後24時間)

TLE

最新Source: CelesTrak SupGP

元期: Sep 14, 2026, 21:24 UTC

1 62832C 25019D   26257.89215278  .00047450  00000+0  36864-3 0  2578
2 62832  43.0006 245.7590 0001529 257.3310 145.9856 15.70808734    18

AllMySatでSTARLINK-11549をリアルタイム追跡

Download on the App Store